Regional Weather Roundup
Issued by NWS

Home | Current Version | Previous Version | Graphics & Text | Print | Product List | Glossary On
Versions: 1 2 3 4 5 6 7 8 9 10 11 12 13 14 15 16 17 18 19 20 21 22 23 24 25 26 27 28 29 30 31 32 33 34 35 36 37 38 39 40 41 42 43 44 45 46 47 48 49 50
000
ASUS43 KMPX 260410
RWRMN
WEATHER ROUNDUP FOR MINNESOTA
NATIONAL WEATHER SERVICE TWIN CITIES/CHANHASSEN MN
1100 PM CDT THU AUG 25 2016


NOTE: "FAIR" INDICATES FEW OR NO CLOUDS BELOW 12,000 FEET WITH NO
SIGNIFICANT WEATHER AND/OR OBSTRUCTIONS TO VISIBILITY. N/A MEANS
CURRENT SKY AND/OR WEATHER CONDITIONS ARE NOT AVAILABLE.

MNZ060>063-068>070-260500-
   Twin Cities Metro

CITY           SKY/WX    TMP DP  RH WIND       PRES   REMARKS
TWIN CITIES    CLEAR     64  53  67 W5        30.11R
ST PAUL        CLEAR     62  53  72 SW5       30.11R
CRYSTAL        CLEAR     61  52  72 W6        30.09S
BLAINE         CLEAR     63  55  77 W5        30.10S
LAKEVILLE      CLEAR     57  54  88 CALM      30.12S
EDEN PRAIRIE   CLEAR     59  54  83 SW6       30.11R
LAKEVILLE      CLEAR     57  54  88 CALM      30.12S
SOUTH ST PAUL  CLEAR     61  54  76 SW3       30.11R
LAKE ELMO      FAIR      57  55  94 CALM      30.12R
$$
MNZ001>005-007-008-013>017-022>024-027-028-260500-
   Northwest Minnesota

CITY           SKY/WX    TMP DP  RH WIND       PRES   REMARKS
BEMIDJI        CLEAR     52  49  89 CALM      30.07S
HALLOCK        CLEAR     54  48  82 CALM      30.04S
ROSEAU         CLEAR     54  48  82 CALM      30.04S
WARROAD        PTCLDY    54  48  82 SW3       30.05R
THIEF RVR FALL PTCLDY    53  49  86 S3        30.07S
CROOKSTON      CLEAR     54  48  82 SW7       30.07S
FOSSTON        CLEAR     48  43  81 CALM      30.09R
DETROIT LAKES  PTCLDY    59  52  77 W5        30.10S
MOORHEAD       PTCLDY    59  52  77 SW3       30.09S
PARK RAPIDS    CLEAR     55  51  86 CALM      30.09R
MAHNOMEN       FAIR      54  50  85 CALM      30.08S
$$
MNZ006-009>011-018-025>026-260500-
   North Central Minnesota

CITY           SKY/WX    TMP DP  RH WIND       PRES   REMARKS
BAUDETTE       CLEAR     51  49  92 SW6       30.04R
FLAG ISLAND    CLEAR     61  50  67 CALM      30.01S
INTL FALLS     CLOUDY    55  53  93 CALM      30.04R
WASKISH        CLEAR     61  52  72 W7        30.06S
BIG FORK       CLOUDY    57  54  88 CALM      30.06S
LONGVILLE      CLEAR     52  52 100 CALM      30.07S
GRAND RAPIDS   PTCLDY    58  52  80 W5        30.08S
CRANE LAKE     CLOUDY    55  54  94 CALM      30.05R
ORR            MOCLDY    55  52  88 CALM      30.02S
COOK           CLOUDY    57  54  88 W6        30.05R
WALKER         CLOUDY    52  50  95 CALM      30.08S
$$
MNZ012-019>021-037-260500-
   Northeast Minnesota

CITY           SKY/WX    TMP DP  RH WIND       PRES   REMARKS
DULUTH         MOCLDY    59  53  80 NW9       30.05R
ELY            CLOUDY    57  55  94 NW3       30.02R
HIBBING        CLOUDY    56  53  90 NW9       30.05R
EVELETH        CLOUDY    58  55  92 W7        30.05S
DULUTH HARBOR  MOCLDY    64  57  77 W13       30.04S
TWO HARBORS    PTCLDY    63  57  82 W3        30.01S
SILVER BAY     CLEAR     59  55  88 CALM      29.99S
GRAND MARAIS     N/A     62  55  77 VRB6      29.95S
G MARAIS ARPRT MOCLDY    55  50  82 W5        30.00R
$$
MNZ029>031-032-039>041-046>048-054>057-064-260500-
   West Central Minnesota

CITY           SKY/WX    TMP DP  RH WIND       PRES   REMARKS
FERGUS FALLS   CLEAR     54  54 100 W3        30.12R
WHEATON        CLEAR     57  55  94 SW5       30.14R
MORRIS         CLEAR     55  54  94 W5        30.12R
ALEXANDRIA     PTCLDY    56  53  90 SW7       30.13R
ELBOW LAKE     FAIR      54  53  98 SW7       30.12R
WADENA         CLEAR     54  52  94 W5        30.09S
GLENWOOD       PTCLDY    57  55  94 W6        30.13R
APPLETON       CLEAR     57  54  88 W5        30.13R
BENSON         PTCLDY    57  54  88 W3        30.13R
ORTONVILLE     CLEAR     57  54  88 CALM      30.14R
MADISON        CLEAR     55  52  88 W5        30.15R
WILLMAR        MOCLDY    55  54  94 CALM      30.15R
$$
MNZ033>034-036-042>043-049>051-058-059-260500-
   Central Minnesota

CITY           SKY/WX    TMP DP  RH WIND       PRES   REMARKS
ST CLOUD       CLOUDY    62  55  77 W6        30.11R
SAUK CENTRE    FAIR      57  55  94 SW3       30.12R
PAYNESVILLE    CLOUDY    58  58 100 W3        30.13R
AITKIN         PTCLDY    55  50  82 CALM      30.07R
PINE RIVER     CLEAR     54  52  94 CALM      30.11S
BRAINERD       CLEAR     56  53  90 SW5       30.09R
STAPLES        CLEAR     54  52  94 CALM      30.10R
LONG PRAIRIE   FAIR      54  52  94 SE3       30.11S
LITTLE FALLS   CLEAR     54  52  94 CALM      30.11R
LITCHFIELD     CLEAR     59  55  88 CALM      30.13S
BUFFALO        CLEAR     60  55  82 CALM      30.13R
MAPLE LAKE     MOCLDY    60  56  88 W3        30.13R
HUTCHINSON     CLEAR     56  55  95 SW3       30.14S
$$
MNZ037-044-045-052-053-260500-
   East Central Minnesota

CITY           SKY/WX    TMP DP  RH WIND       PRES   REMARKS
PRINCETON        N/A     63  55  77 CALM      30.11R
MORA           PTCLDY    57  52  82 W5        30.11R
CAMBRIDGE      CLOUDY    63  54  72 CALM      30.08S
RUSH CITY      CLOUDY    61  55  81 W5        30.09S
MOOSE LAKE     PTCLDY    55  52  88 W3        30.06R
HINCKLEY       FAIR      55  54  94 W5        30.09R
CLOQUET        MOCLDY    57  52  82 NW5       30.06R
MCGREGOR       PTCLDY    59  54  82 W3        30.07S
$$
MNZ071>073-080-081-089-090-097-098-260500-
   Southwest Minnesota

CITY           SKY/WX    TMP DP  RH WIND       PRES   REMARKS
MONTEVIDEO     CLEAR     57  52  82 W3        30.16R
GRANITE FALLS  PTCLDY    54  53  94 SW3       30.16R
CANBY          CLEAR     56  52  86 SW6       30.17R
MARSHALL       CLEAR     56  53  90 SW5       30.17R
REDWOOD FALLS  CLEAR     59  52  77 W5        30.15R
OLIVIA         CLEAR     54  50  87 SW3       30.14R
PIPESTONE      CLEAR     59  54  82 E1        30.18R
WINDOM         CLEAR     57  54  88 CALM      30.18R
JACKSON        CLEAR     57  54  88 CALM      30.17R
TRACY          CLEAR     58  55  90 SW3       30.17R
SLAYTON        CLEAR     55  54  94 CALM      30.19R
$$
MNZ065>067-074>077-082>085-091>093-260500-
   South Central Minnesota

CITY           SKY/WX    TMP DP  RH WIND       PRES   REMARKS
MANKATO        CLEAR     61  54  77 CALM      30.14R
NEW ULM          N/A     57  55  94 CALM      30.15R
FAIRMONT       CLOUDY    60  57  89 CALM      30.16R
GLENCOE        CLEAR     58  56  92 SW3       30.13R
FARIBAULT      CLEAR     59  55  88 SW3       30.14R
OWATONNA       MOCLDY    61  57  88 CALM      30.14S
WASECA         PTCLDY    57  55  94 CALM      30.16R
ALBERT LEA     CLEAR     61  57  88 CALM      30.15R
$$
MNZ078>079-086>088-094>096-260500-
   Southeast Minnesota

CITY           SKY/WX    TMP DP  RH WIND       PRES   REMARKS
ROCHESTER      CLEAR     60  58  92 NW6       30.15R
RED WING       CLEAR     57  55  94 CALM      30.10S
STANTON        CLEAR     59  55  88 SW3       30.12R
DODGE CENTER   CLEAR     61  55  82 NW3       30.14S
WINONA         CLEAR     63  57  82 W3        30.12R
AUSTIN         CLEAR     61  57  88 CALM      30.14R
PRESTON        CLEAR     61  56  83 W5        30.15R
$$
ABBREVIATIONS USED IN REMARKS
   TC - TEMPERATURES IN CELSIUS
  WCI - WIND CHILL INDEX
   HX - HEAT INDEX
  VSB - VISIBILITY
$$




USA.gov is the U.S. government's official web portal to all federal, state and local government web resources and services.